FGN363 KSLC-KBOI

Flight info

Callsign FGN363
Flight time 0h 44m
Altitude 32000
Route CGULL1 TWF BROPH SPUUD4
Aircraft A346/H-SDE2E3FGHIJ3J4J5M1RWXY/LB1D1

Departure

Time 2026-05-08 04:12
Airport Salt Lake City International Airport (KSLC)

Arrival

Time 2026-05-08 04:56
Airport Boise Air Terminal/Gowen Field (KBOI)
Time Latitude Longitude Altitude Speed Heading
2026-05-08 03:56 40.78643 -111.98445 4243 ft 0 kts 164°
2026-05-08 04:01 40.78660 -111.98451 4232 ft 4 kts 164°
2026-05-08 04:01 40.78682 -111.98460 4243 ft 4 kts 155°
2026-05-08 04:02 40.78700 -111.98476 4242 ft 4 kts 127°
2026-05-08 04:02 40.78707 -111.98499 4241 ft 4 kts 90°
2026-05-08 04:02 40.78704 -111.98532 4238 ft 4 kts 80°
2026-05-08 04:02 40.78702 -111.98551 4238 ft 0 kts 85°
2026-05-08 04:04 40.78703 -111.98540 4239 ft 5 kts 85°
2026-05-08 04:04 40.78713 -111.98408 4243 ft 17 kts 84°
2026-05-08 04:04 40.78724 -111.98237 4243 ft 20 kts 86°
2026-05-08 04:04 40.78735 -111.98044 4243 ft 22 kts 85°
2026-05-08 04:05 40.78748 -111.97832 4243 ft 24 kts 85°
2026-05-08 04:05 40.78696 -111.97679 4243 ft 19 kts 163°
2026-05-08 04:05 40.78556 -111.97651 4243 ft 21 kts 176°
2026-05-08 04:05 40.78399 -111.97638 4242 ft 23 kts 175°
2026-05-08 04:06 40.78231 -111.97620 4242 ft 25 kts 175°
2026-05-08 04:06 40.78052 -111.97600 4256 ft 26 kts 174°
2026-05-08 04:06 40.77870 -111.97547 4264 ft 27 kts 163°
2026-05-08 04:06 40.77704 -111.97505 4264 ft 22 kts 173°
2026-05-08 04:07 40.77580 -111.97492 4264 ft 13 kts 175°
2026-05-08 04:07 40.77504 -111.97484 4264 ft 0 kts 174°
2026-05-08 04:07 40.77498 -111.97483 4264 ft 2 kts 171°
2026-05-08 04:07 40.77491 -111.97481 4264 ft 0 kts 160°
2026-05-08 04:08 40.77491 -111.97480 4264 ft 0 kts 160°
2026-05-08 04:08 40.77490 -111.97480 4264 ft 0 kts 160°
2026-05-08 04:11 40.77462 -111.97425 4263 ft 8 kts 74°
2026-05-08 04:11 40.77499 -111.97346 4263 ft 12 kts 33°
2026-05-08 04:11 40.77535 -111.97332 4263 ft 0 kts 359°
2026-05-08 04:12 40.77741 -111.97354 4263 ft 78 kts 354°
2026-05-08 04:12 40.78637 -111.97463 4241 ft 174 kts 356°
2026-05-08 04:12 40.79976 -111.97620 5020 ft 198 kts 354°
2026-05-08 04:12 40.81245 -111.98207 6555 ft 197 kts 324°
2026-05-08 04:13 40.81874 -111.99111 7212 ft 210 kts 303°
2026-05-08 04:13 40.82549 -112.00949 8093 ft 231 kts 292°
2026-05-08 04:13 40.83164 -112.03004 8675 ft 253 kts 291°
2026-05-08 04:13 40.83819 -112.05285 9040 ft 273 kts 291°
2026-05-08 04:14 40.84785 -112.08478 10059 ft 285 kts 299°
2026-05-08 04:14 40.85560 -112.09917 10889 ft 284 kts 308°
2026-05-08 04:14 40.87362 -112.12582 12116 ft 305 kts 311°
2026-05-08 04:14 40.88349 -112.14008 12631 ft 318 kts 310°
2026-05-08 04:15 40.89876 -112.16259 13379 ft 337 kts 310°
2026-05-08 04:15 40.91449 -112.18625 14045 ft 356 kts 309°
2026-05-08 04:15 40.93107 -112.21166 14724 ft 370 kts 309°
2026-05-08 04:15 40.94799 -112.23776 15678 ft 376 kts 310°
2026-05-08 04:16 40.96507 -112.26421 16752 ft 379 kts 310°
2026-05-08 04:16 40.98235 -112.29103 17781 ft 384 kts 310°
2026-05-08 04:16 40.99980 -112.31816 18682 ft 390 kts 311°
2026-05-08 04:16 41.01756 -112.34582 19517 ft 397 kts 311°
2026-05-08 04:17 41.03563 -112.37397 20322 ft 403 kts 311°
2026-05-08 04:17 41.05468 -112.40159 21144 ft 408 kts 316°
2026-05-08 04:17 41.07587 -112.42693 21983 ft 413 kts 321°
2026-05-08 04:17 41.09906 -112.45002 22794 ft 419 kts 326°
2026-05-08 04:18 41.12336 -112.47102 23557 ft 425 kts 328°
2026-05-08 04:18 41.14862 -112.49210 24199 ft 431 kts 328°
2026-05-08 04:18 41.17363 -112.51435 24941 ft 435 kts 325°
2026-05-08 04:18 41.19810 -112.53837 25832 ft 438 kts 323°
2026-05-08 04:19 41.22238 -112.56292 26752 ft 438 kts 323°
2026-05-08 04:19 41.24651 -112.58795 27496 ft 441 kts 321°
2026-05-08 04:19 41.27000 -112.61461 28182 ft 445 kts 319°
2026-05-08 04:19 41.29267 -112.64298 28913 ft 449 kts 316°
2026-05-08 04:20 41.31444 -112.67302 29682 ft 451 kts 314°
2026-05-08 04:20 41.33549 -112.70349 30638 ft 439 kts 314°
2026-05-08 04:20 41.35568 -112.73307 31321 ft 425 kts 314°
2026-05-08 04:20 41.37514 -112.76160 31757 ft 419 kts 314°
2026-05-08 04:21 41.39472 -112.79030 31862 ft 417 kts 314°
2026-05-08 04:21 41.41413 -112.81909 31885 ft 418 kts 313°
2026-05-08 04:21 41.45245 -112.87766 31894 ft 418 kts 313°
2026-05-08 04:22 41.49063 -112.93627 31918 ft 417 kts 313°
2026-05-08 04:22 41.52877 -112.99485 31896 ft 417 kts 313°
2026-05-08 04:23 41.56658 -113.05295 31898 ft 417 kts 313°
2026-05-08 04:23 41.60458 -113.11146 31905 ft 417 kts 313°
2026-05-08 04:24 41.64274 -113.17030 31914 ft 417 kts 312°
2026-05-08 04:24 41.68075 -113.22908 31916 ft 417 kts 312°
2026-05-08 04:25 41.71879 -113.28799 31929 ft 422 kts 312°
2026-05-08 04:25 41.73826 -113.31818 32208 ft 434 kts 312°
2026-05-08 04:25 41.75816 -113.34907 32598 ft 440 kts 312°
2026-05-08 04:26 41.77821 -113.38025 33273 ft 440 kts 312°
2026-05-08 04:26 41.79796 -113.41099 33775 ft 443 kts 312°
2026-05-08 04:26 41.81852 -113.44300 33915 ft 444 kts 312°
2026-05-08 04:26 41.83820 -113.47366 33923 ft 438 kts 312°
2026-05-08 04:27 41.87774 -113.53542 33933 ft 434 kts 312°
2026-05-08 04:27 41.91720 -113.59718 33937 ft 435 kts 312°
2026-05-08 04:28 41.95654 -113.65889 33908 ft 427 kts 312°
2026-05-08 04:28 41.97537 -113.68849 33895 ft 410 kts 312°
2026-05-08 04:28 41.99390 -113.71761 33973 ft 409 kts 312°
2026-05-08 04:29 42.03090 -113.77583 33937 ft 409 kts 312°
2026-05-08 04:29 42.06793 -113.83423 33955 ft 410 kts 312°
2026-05-08 04:30 42.10498 -113.89282 33940 ft 409 kts 311°
2026-05-08 04:30 42.14196 -113.95141 33950 ft 409 kts 311°
2026-05-08 04:31 42.17885 -114.00991 33943 ft 410 kts 312°
2026-05-08 04:31 42.21569 -114.06812 33932 ft 409 kts 312°
2026-05-08 04:32 42.25255 -114.12647 33560 ft 404 kts 311°
2026-05-08 04:32 42.27089 -114.15557 32611 ft 409 kts 311°
2026-05-08 04:32 42.28959 -114.18524 31569 ft 418 kts 311°
2026-05-08 04:33 42.30856 -114.21538 30655 ft 423 kts 311°
2026-05-08 04:33 42.32772 -114.24586 29712 ft 427 kts 311°
2026-05-08 04:33 42.34683 -114.27633 28661 ft 432 kts 311°
2026-05-08 04:33 42.36645 -114.30762 27519 ft 437 kts 311°
2026-05-08 04:34 42.38626 -114.33925 26409 ft 443 kts 311°
2026-05-08 04:34 42.40630 -114.37124 25632 ft 446 kts 311°
2026-05-08 04:34 42.42641 -114.40343 25247 ft 447 kts 311°
2026-05-08 04:34 42.44654 -114.43569 25041 ft 448 kts 311°
2026-05-08 04:35 42.46675 -114.46812 25041 ft 450 kts 311°
2026-05-08 04:35 42.48695 -114.50052 25035 ft 450 kts 311°
2026-05-08 04:35 42.50728 -114.53287 24955 ft 450 kts 311°
2026-05-08 04:35 42.52755 -114.56511 24722 ft 448 kts 311°
2026-05-08 04:36 42.54777 -114.59730 24460 ft 448 kts 310°
2026-05-08 04:36 42.56800 -114.62958 24223 ft 448 kts 310°
2026-05-08 04:36 42.58821 -114.66188 23981 ft 448 kts 310°
2026-05-08 04:36 42.60835 -114.69412 23745 ft 447 kts 310°
2026-05-08 04:37 42.62852 -114.72646 23485 ft 447 kts 310°
2026-05-08 04:37 42.64864 -114.75872 23207 ft 446 kts 310°
2026-05-08 04:37 42.66832 -114.79035 22947 ft 438 kts 310°
2026-05-08 04:37 42.68778 -114.82167 22672 ft 430 kts 310°
2026-05-08 04:38 42.70708 -114.85275 22401 ft 428 kts 310°
2026-05-08 04:38 42.72667 -114.88303 22134 ft 425 kts 312°
2026-05-08 04:38 42.74691 -114.91242 21865 ft 424 kts 313°
2026-05-08 04:38 42.76718 -114.94147 21602 ft 422 kts 313°
2026-05-08 04:39 42.78744 -114.97046 21341 ft 420 kts 313°
2026-05-08 04:39 42.80761 -114.99936 21094 ft 419 kts 313°
2026-05-08 04:39 42.82762 -115.02810 20843 ft 417 kts 313°
2026-05-08 04:39 42.84753 -115.05674 20592 ft 415 kts 313°
2026-05-08 04:40 42.86735 -115.08529 20365 ft 413 kts 313°
2026-05-08 04:40 42.88690 -115.11348 20135 ft 412 kts 313°
2026-05-08 04:40 42.90653 -115.14184 19916 ft 410 kts 313°
2026-05-08 04:40 42.92611 -115.17012 19664 ft 408 kts 313°
2026-05-08 04:41 42.94562 -115.19836 19419 ft 407 kts 313°
2026-05-08 04:41 42.96498 -115.22645 19174 ft 405 kts 313°
2026-05-08 04:41 42.98431 -115.25455 18933 ft 404 kts 313°
2026-05-08 04:41 43.00356 -115.28256 18692 ft 402 kts 313°
2026-05-08 04:42 43.02268 -115.31039 18458 ft 397 kts 313°
2026-05-08 04:42 43.04115 -115.33730 18120 ft 386 kts 313°
2026-05-08 04:42 43.05920 -115.36364 17853 ft 373 kts 313°
2026-05-08 04:42 43.07663 -115.38908 17456 ft 355 kts 313°
2026-05-08 04:43 43.09324 -115.41336 17187 ft 344 kts 313°
2026-05-08 04:43 43.10951 -115.43717 16932 ft 342 kts 313°
2026-05-08 04:43 43.12546 -115.46054 16688 ft 340 kts 313°
2026-05-08 04:43 43.14164 -115.48427 16500 ft 340 kts 313°
2026-05-08 04:44 43.15777 -115.50787 16258 ft 338 kts 313°
2026-05-08 04:44 43.17384 -115.53136 16023 ft 334 kts 313°
2026-05-08 04:44 43.18957 -115.55440 15692 ft 327 kts 313°
2026-05-08 04:44 43.20497 -115.57696 15386 ft 321 kts 313°
2026-05-08 04:45 43.22008 -115.59913 15076 ft 315 kts 313°
2026-05-08 04:45 43.23494 -115.62094 14771 ft 309 kts 313°
2026-05-08 04:45 43.24949 -115.64230 14452 ft 303 kts 313°
2026-05-08 04:45 43.26360 -115.66303 14019 ft 288 kts 313°
2026-05-08 04:46 43.27727 -115.68224 13835 ft 275 kts 315°
2026-05-08 04:46 43.29075 -115.69975 13499 ft 262 kts 316°
2026-05-08 04:46 43.30363 -115.71625 13213 ft 245 kts 316°
2026-05-08 04:46 43.31572 -115.73175 12932 ft 230 kts 316°
2026-05-08 04:47 43.32698 -115.74620 12668 ft 213 kts 316°
2026-05-08 04:47 43.33739 -115.75955 12380 ft 197 kts 315°
2026-05-08 04:47 43.34733 -115.77233 11721 ft 199 kts 315°
2026-05-08 04:47 43.35775 -115.78574 11015 ft 205 kts 315°
2026-05-08 04:48 43.36787 -115.79877 10813 ft 192 kts 315°
2026-05-08 04:48 43.37734 -115.81097 10594 ft 181 kts 314°
2026-05-08 04:48 43.38638 -115.82290 10191 ft 180 kts 313°
2026-05-08 04:48 43.39536 -115.83526 9701 ft 184 kts 313°
2026-05-08 04:49 43.40432 -115.84770 9284 ft 181 kts 313°
2026-05-08 04:49 43.41318 -115.85996 8850 ft 180 kts 313°
2026-05-08 04:49 43.42203 -115.87217 8395 ft 180 kts 314°
2026-05-08 04:49 43.43083 -115.88435 8057 ft 179 kts 314°
2026-05-08 04:50 43.43971 -115.89656 8034 ft 181 kts 314°
2026-05-08 04:50 43.44853 -115.90867 7785 ft 176 kts 314°
2026-05-08 04:50 43.45707 -115.92089 7302 ft 177 kts 311°
2026-05-08 04:50 43.46469 -115.93435 6835 ft 179 kts 306°
2026-05-08 04:51 43.47114 -115.94886 6354 ft 180 kts 300°
2026-05-08 04:51 43.47671 -115.96440 5853 ft 181 kts 298°
2026-05-08 04:51 43.48210 -115.97994 5356 ft 177 kts 298°
2026-05-08 04:51 43.48718 -115.99467 5083 ft 163 kts 297°
2026-05-08 04:52 43.49185 -116.00831 4772 ft 154 kts 298°
2026-05-08 04:52 43.49627 -116.02105 4555 ft 141 kts 297°
2026-05-08 04:52 43.50108 -116.03459 4542 ft 163 kts 297°
2026-05-08 04:52 43.50616 -116.04866 4576 ft 164 kts 297°
2026-05-08 04:53 43.51126 -116.06260 4582 ft 162 kts 298°
2026-05-08 04:53 43.51620 -116.07616 4575 ft 158 kts 298°
2026-05-08 04:53 43.52075 -116.09009 4575 ft 157 kts 294°
2026-05-08 04:53 43.52470 -116.10420 4576 ft 156 kts 289°
2026-05-08 04:54 43.52790 -116.11809 4289 ft 153 kts 284°
2026-05-08 04:54 43.52923 -116.13283 3846 ft 154 kts 284°
2026-05-08 04:54 43.53282 -116.14495 3784 ft 139 kts 307°
2026-05-08 04:54 43.53926 -116.15759 3863 ft 161 kts 302°
2026-05-08 04:55 43.54299 -116.16655 3740 ft 164 kts 300°
2026-05-08 04:55 43.55020 -116.18494 3374 ft 161 kts 301°
2026-05-08 04:55 43.55527 -116.19855 3132 ft 163 kts 294°
2026-05-08 04:55 43.55993 -116.21287 2913 ft 162 kts 294°
2026-05-08 04:56 43.56398 -116.22499 2889 ft 107 kts 295°
2026-05-08 04:56 43.56549 -116.22942 2894 ft 52 kts 295°
2026-05-08 04:56 43.56709 -116.23151 2889 ft 12 kts 20°
2026-05-08 04:56 43.56870 -116.23050 2885 ft 23 kts 34°
2026-05-08 04:57 43.56867 -116.22882 2885 ft 19 kts 111°
2026-05-08 04:57 43.56809 -116.22710 2887 ft 21 kts 116°